Location: Newark
(51.0500°N, 12.4500°E)
Time: 16:55:10
(UTC+00:00)

S-56A Canister/Altair - All Passes

Search period start: 21 February 2020 00:00
Search period end: 02 March 2020 00:00
Orbit: 633 x 2499 km, 38.9° (Epoch: 20 February)

Date Brightness Start Highest point End Pass type
(mag) Time Alt. Az. Time Alt. Az. Time Alt. Az.
21 Feb - 07:58:29 10° SSE 08:04:52 14° SE 08:11:25 10° ESE daylight
21 Feb - 09:55:58 10° SSW 10:08:18 34° SSE 10:20:24 10° E daylight
21 Feb - 11:59:06 10° WSW 12:13:10 48° S 12:25:29 10° ESE daylight
21 Feb - 14:04:34 10° W 14:18:14 46° SSW 14:29:00 10° SE daylight
21 Feb - 16:11:33 10° W 16:21:59 27° SW 16:30:12 10° SSE daylight
22 Feb - 07:27:38 10° SE 07:31:53 12° SE 07:36:15 10° ESE daylight
22 Feb - 09:23:13 10° SSW 09:35:00 32° SSE 09:47:00 10° E daylight
22 Feb - 11:25:49 10° SW 11:39:44 48° SSE 11:52:28 10° E daylight
22 Feb - 13:30:57 10° WSW 13:44:56 48° SSW 13:56:19 10° ESE daylight
22 Feb - 15:37:38 10° W 15:49:01 31° SW 15:58:01 10° SSE daylight
23 Feb - 08:50:36 10° SSW 09:01:46 29° SE 09:13:28 10° E daylight
23 Feb - 10:52:38 10° SW 11:06:18 47° SSE 11:19:21 10° E daylight
23 Feb - 12:57:25 10° WSW 13:11:34 49° S 13:23:32 10° ESE daylight
23 Feb - 15:03:48 10° W 15:15:58 34° SSW 15:25:43 10° SSE daylight
23 Feb - 17:13:55 10° WSW 17:18:30 13° SW 17:22:38 10° SSW visible
24 Feb - 08:18:08 10° S 08:28:34 27° SE 08:39:48 10° E daylight
24 Feb - 10:19:33 10° SW 10:32:52 45° SSE 10:46:09 10° E daylight
24 Feb - 12:23:58 10° WSW 12:38:09 50° S 12:50:40 10° ESE daylight
24 Feb - 14:30:02 10° W 14:42:50 37° SSW 14:53:17 10° SSE daylight
24 Feb - 16:38:55 10° W 16:45:44 16° SW 16:51:41 10° SSW daylight
25 Feb - 07:45:51 10° S 07:55:26 24° SE 08:05:59 10° E daylight
25 Feb - 09:46:35 10° SW 09:59:27 43° SSE 10:12:50 10° E daylight
25 Feb - 11:50:36 10° WSW 12:04:41 51° S 12:17:42 10° ESE daylight
25 Feb - 13:56:21 10° W 14:09:37 40° SSW 14:20:45 10° SE daylight
25 Feb - 16:04:25 10° W 16:12:53 19° SW 16:20:09 10° S daylight
26 Feb - 07:13:45 10° S 07:22:23 21° SE 07:31:59 10° E daylight
26 Feb - 09:13:44 10° SW 09:26:05 41° SSE 09:39:26 10° E daylight
26 Feb - 11:17:19 10° WSW 11:31:13 51° S 11:44:37 10° ESE daylight
26 Feb - 13:22:45 10° W 13:36:20 42° SSW 13:48:05 10° SE daylight
26 Feb - 15:30:12 10° W 15:39:57 22° SW 15:48:18 10° S daylight
27 Feb - 06:41:55 10° SSE 06:49:24 18° SE 06:57:45 10° E daylight
27 Feb - 08:40:59 10° SW 08:52:45 39° SSE 09:05:56 10° E daylight
27 Feb - 10:44:08 10° WSW 10:57:44 51° S 11:11:28 10° ESE daylight
27 Feb - 12:49:15 10° W 13:02:59 45° SSW 13:15:19 10° SE daylight
27 Feb - 14:56:11 10° W 15:06:56 25° SW 15:16:14 10° S daylight
28 Feb - 06:10:27 10° SSE 06:16:29 15° SE 06:23:11 10° E daylight
28 Feb - 08:08:22 10° SSW 08:19:29 36° SSE 08:32:20 10° E daylight
28 Feb - 10:11:03 10° WSW 10:24:16 50° S 10:38:12 10° ESE daylight
28 Feb - 12:15:49 10° W 12:29:35 47° SSW 12:42:27 10° SE daylight
28 Feb - 14:22:18 10° W 14:33:51 28° SW 14:43:59 10° SSE daylight
29 Feb - 05:39:41 10° SE 05:43:40 12° SE 05:47:57 10° ESE daylight
29 Feb - 07:35:52 10° SSW 07:46:16 33° SSE 07:58:38 10° E daylight
29 Feb - 09:38:05 10° WSW 09:50:48 49° S 10:04:51 10° ESE daylight
29 Feb - 11:42:30 10° W 11:56:09 48° SSW 12:09:28 10° SE daylight
29 Feb - 13:48:34 10° W 14:00:41 31° SW 14:11:35 10° SSE daylight
29 Feb - 16:01:02 10° WSW 16:03:22 11° WSW 16:05:39 10° SW daylight
01 Mar - 07:03:31 10° SSW 07:13:10 30° SE 07:24:50 10° E daylight
01 Mar - 09:05:12 10° SW 09:17:23 48° SSE 09:31:25 10° E daylight
01 Mar - 11:09:16 10° WSW 11:22:41 49° S 11:36:23 10° ESE daylight
01 Mar - 13:14:56 10° W 13:27:27 34° SSW 13:39:01 10° SSE daylight
01 Mar - 15:24:49 10° WSW 15:30:30 13° SW 15:35:52 10° SSW daylight
